Date String (YYYY-MM-DD hh:mm:ss) UTC,Instrument flags,absolute air pressure of the measurement (hPa),sample flow rate (lpm),inlet stack bypass flow (lpm),air temperature of the measurement (°C),ambient temperature measured by the external sensor (°C),aerosol sample conditioner tube jacket temperature (°C),OPC LED temperature (°C),internal box temperature (°C),relative humidity of the measurement (%),span deviation,mass concentration of particles derived from Lorenz-Mie calculation of OPC scattering (μg/m³),mass concentration of particles derived from Lorenz-Mie calculation of OPC scattering (μg/m³),mass concentration of particles derived from Lorenz-Mie calculation of OPC scattering (μg/m³)
DateTimeUTC,F1_M11,P_M11,Q1_M11,Q2_M11,T1_M11,T2_M11,T3_M11,T4_M11,T5_M11,U1_M11,ZSPAN_M11,X0_M11,X2_M11,X1_M11
2023-07-21 07:00:00,SystemResetWarning,0839.8,5.01,000.00,030.6,025.5,000.0,038.8,031.2,34.0,0000.3,0006.99,0003.50,0003.29
2023-07-21 07:01:00,SystemResetWarning,0839.8,4.99,000.00,030.4,025.7,000.0,038.8,031.0,34.4,0000.1,0006.03,0003.50,0003.29
2023-07-21 07:02:00,SystemResetWarning,0839.7,4.99,000.00,030.3,026.1,000.0,038.8,031.1,34.4,0000.5,0006.43,0003.52,0003.29
2023-07-21 07:03:00,SystemResetWarning,0839.8,5.01,000.00,030.3,026.5,000.0,038.8,031.1,34.5,0000.0,0006.47,0003.53,0003.28
2023-07-21 07:04:00,SystemResetWarning,0839.8,5.01,000.00,030.3,026.9,000.0,038.8,031.2,34.6,-000.0,0006.51,0003.53,0003.28
2023-07-21 07:05:00,SystemResetWarning,0839.8,4.99,000.00,030.2,027.2,000.0,038.8,031.2,34.6,-000.4,0006.63,0003.55,0003.27
2023-07-21 07:06:00,SystemResetWarning,0839.8,4.99,000.00,030.2,027.4,000.0,038.8,031.2,34.5,-000.5,0006.60,0003.54,0003.26
2023-07-21 07:07:00,SystemResetWarning,0839.8,4.99,000.00,030.2,027.7,000.0,038.7,031.3,34.5,-001.1,0006.48,0003.54,0003.25
2023-07-21 07:08:00,SystemResetWarning,0839.8,5.00,000.00,030.2,027.8,000.0,038.7,031.3,34.6,-000.9,0006.34,0003.53,0003.25
2023-07-21 07:09:00,SystemResetWarning,0839.8,5.01,000.00,030.2,028.0,000.0,038.7,031.4,34.6,-000.6,0006.42,0003.54,0003.26
2023-07-21 07:10:00,SystemResetWarning,0839.8,5.00,000.00,030.2,028.1,000.0,038.7,031.4,34.8,-000.6,0006.24,0003.54,0003.26
2023-07-21 07:11:00,SystemResetWarning,0839.8,5.01,000.00,030.2,028.2,000.0,038.7,031.4,34.9,0000.0,0005.53,0003.51,0003.26
2023-07-21 07:12:00,SystemResetWarning,0839.8,5.00,000.00,030.2,028.3,000.0,038.7,031.4,34.9,0000.0,0005.52,0003.53,0003.27
2023-07-21 07:13:00,SystemResetWarning,0839.7,5.00,000.00,030.2,028.4,000.0,038.7,031.5,34.8,0000.5,0005.01,0003.54,0003.29
2023-07-21 07:14:00,SystemResetWarning,0839.7,5.00,000.00,030.2,028.4,000.0,038.7,031.5,34.7,0000.7,0005.09,0003.55,0003.30
2023-07-21 07:15:00,SystemResetWarning,0839.7,5.00,000.00,030.2,028.5,000.0,038.7,031.5,34.7,0001.0,0005.14,0003.56,0003.32
2023-07-21 07:16:00,SystemResetWarning,0839.7,5.00,000.00,030.3,028.6,000.0,038.7,031.6,34.6,0000.9,0005.27,0003.55,0003.33
2023-07-21 07:17:00,SystemResetWarning,0839.6,5.00,000.00,030.3,028.6,000.0,038.7,031.6,34.5,0000.9,0005.35,0003.56,0003.33
2023-07-21 07:18:00,SystemResetWarning,0839.6,5.00,000.00,030.3,028.6,000.0,038.7,031.6,34.5,0001.2,0005.22,0003.56,0003.34
2023-07-21 07:19:00,SystemResetWarning,0839.6,4.98,000.00,030.3,028.7,000.0,038.7,031.6,34.4,0001.0,0005.22,0003.56,0003.34
2023-07-21 07:20:00,SystemResetWarning,0839.6,4.99,000.00,030.3,028.7,000.0,038.7,031.6,34.4,0000.5,0005.39,0003.57,0003.34
2023-07-21 07:21:00,SystemResetWarning,0839.7,5.02,000.00,030.3,028.7,000.0,038.7,031.7,34.4,0000.9,0005.82,0003.59,0003.34
2023-07-21 07:22:00,SystemResetWarning,0839.7,4.99,000.00,030.3,028.7,000.0,038.7,031.7,34.3,0000.7,0005.81,0003.59,0003.35
2023-07-21 07:23:00,SystemResetWarning,0839.7,4.99,000.00,030.3,028.8,000.0,038.7,031.7,34.2,0000.4,0005.86,0003.59,0003.35
2023-07-21 07:24:00,SystemResetWarning,0839.6,5.00,000.00,030.3,028.8,000.0,038.7,031.7,34.2,0000.1,0006.14,0003.57,0003.34
2023-07-21 07:25:00,SystemResetWarning,0839.7,5.00,000.00,030.3,028.8,000.0,038.8,031.7,34.2,0000.0,0006.11,0003.58,0003.33
2023-07-21 07:26:00,SystemResetWarning,0839.7,5.00,000.00,030.4,028.8,000.0,038.8,031.7,34.1,0000.0,0006.15,0003.59,0003.33
2023-07-21 07:27:00,SystemResetWarning,0839.7,5.00,000.00,030.4,028.7,000.0,038.8,031.7,34.0,0000.0,0005.97,0003.60,0003.33
2023-07-21 07:28:00,SystemResetWarning,0839.7,4.99,000.00,030.3,027.0,000.0,038.6,031.6,33.9,0000.0,0006.07,0003.61,0003.34
2023-07-21 07:29:00,SystemResetWarning,0839.5,5.01,000.00,030.2,025.6,000.0,038.5,031.3,34.1,0000.0,0006.16,0003.63,0003.34
2023-07-21 07:30:00,SystemResetWarning,0839.5,5.01,000.00,030.1,025.4,000.0,038.5,031.0,34.3,0000.0,0006.30,0003.64,0003.35
2023-07-21 07:31:00,SystemResetWarning,0839.5,5.01,000.00,030.0,025.7,000.0,038.5,030.9,34.4,0000.0,0006.13,0003.62,0003.35
2023-07-21 07:32:00,SystemResetWarning,0839.5,5.00,000.00,029.9,026.1,000.0,038.5,031.0,34.5,0000.0,0005.81,0003.62,0003.36
2023-07-21 07:33:00,SystemResetWarning,0839.5,4.99,000.00,029.9,026.5,000.0,038.5,031.0,34.6,0000.0,0005.85,0003.64,0003.37
2023-07-21 07:34:00,SystemResetWarning,0839.4,5.01,000.00,029.8,026.8,000.0,038.5,031.0,34.7,0000.0,0005.86,0003.66,0003.37
2023-07-21 07:35:00,SystemResetWarning,0839.4,5.01,000.00,029.8,027.1,000.0,038.4,031.1,34.7,0000.0,0005.58,0003.68,0003.38
2023-07-21 07:36:00,SystemResetWarning,0839.4,4.99,000.00,029.8,027.4,000.0,038.4,031.1,34.7,0000.0,0005.50,0003.67,0003.38
2023-07-21 07:37:00,SystemResetWarning,0839.3,5.00,000.00,029.8,027.6,000.0,038.4,031.2,34.7,-000.4,0005.60,0003.70,0003.40
2023-07-21 07:38:00,SystemResetWarning,0839.2,5.00,000.00,029.8,027.7,000.0,038.4,031.2,34.9,-001.1,0005.59,0003.70,0003.41
2023-07-21 07:39:00,SystemResetWarning,0839.2,5.00,000.00,029.8,027.9,000.0,038.4,031.2,34.9,-000.6,0005.57,0003.71,0003.42
2023-07-21 07:40:00,SystemResetWarning,0839.2,5.00,000.00,029.8,028.0,000.0,038.4,031.2,34.9,-000.4,0005.66,0003.71,0003.43
2023-07-21 07:41:00,SystemResetWarning,0839.2,5.01,000.00,029.8,028.1,000.0,038.4,031.3,34.8,-000.5,0005.47,0003.69,0003.43
2023-07-21 07:42:00,SystemResetWarning,0839.2,5.00,000.00,029.8,028.2,000.0,038.4,031.3,34.8,-000.3,0005.48,0003.70,0003.43
2023-07-21 07:43:00,SystemResetWarning,0839.2,5.00,000.00,029.9,028.2,000.0,038.4,031.3,34.9,-000.2,0005.35,0003.70,0003.43
2023-07-21 07:44:00,SystemResetWarning,0839.3,5.00,000.00,029.9,028.3,000.0,038.4,031.3,34.9,0000.1,0005.23,0003.67,0003.43
2023-07-21 07:45:00,SystemResetWarning,0839.2,4.99,000.00,029.9,028.3,000.0,038.4,031.4,34.8,-000.1,0005.17,0003.65,0003.42
2023-07-21 07:46:00,SystemResetWarning,0839.2,4.99,000.00,029.9,028.4,000.0,038.4,031.4,34.8,-000.8,0005.06,0003.63,0003.42
2023-07-21 07:47:00,SystemResetWarning,0839.3,5.00,000.00,029.9,028.4,000.0,038.4,031.4,34.8,-000.6,0005.06,0003.62,0003.42
2023-07-21 07:48:00,SystemResetWarning,0839.2,5.01,000.00,029.9,028.4,000.0,038.4,031.4,34.7,-000.5,0005.10,0003.62,0003.41
2023-07-21 07:49:00,SystemResetWarning,0839.2,5.00,000.00,029.9,028.4,000.0,038.4,031.4,34.7,0000.0,0005.17,0003.62,0003.40
2023-07-21 07:50:00,SystemResetWarning,0839.2,5.01,000.00,029.9,028.5,000.0,038.4,031.4,34.8,0000.0,0005.21,0003.64,0003.40
2023-07-21 07:51:00,SystemResetWarning,0839.2,5.00,000.00,030.0,028.5,000.0,038.4,031.4,34.7,0000.0,0004.96,0003.61,0003.40
2023-07-21 07:52:00,SystemResetWarning,0839.2,5.00,000.00,030.0,028.5,000.0,038.4,031.5,34.7,0000.0,0005.45,0003.64,0003.41
2023-07-21 07:53:00,SystemResetWarning,0839.2,5.00,000.00,030.0,028.5,000.0,038.4,031.5,34.7,0000.0,0005.78,0003.66,0003.42
2023-07-21 07:54:00,SystemResetWarning,0839.2,5.00,000.00,030.0,028.6,000.0,038.4,031.5,34.7,0000.0,0006.11,0003.66,0003.43
2023-07-21 07:55:00,SystemResetWarning,0839.2,5.00,000.00,030.0,028.6,000.0,038.5,031.5,34.7,0000.0,0006.21,0003.69,0003.44
2023-07-21 07:56:00,SystemResetWarning,0839.2,5.00,000.00,030.0,028.6,000.0,038.5,031.5,34.7,0000.0,0006.38,0003.71,0003.44
2023-07-21 07:57:00,SystemResetWarning,0839.1,4.99,000.00,030.0,028.6,000.0,038.5,031.5,34.6,0000.0,0006.46,0003.73,0003.45
2023-07-21 07:58:00,SystemResetWarning,0839.2,5.00,000.00,030.0,028.6,000.0,038.5,031.6,34.6,0000.0,0006.47,0003.74,0003.46
2023-07-21 07:59:00,SystemResetWarning,0839.2,5.00,000.00,030.0,028.7,000.0,038.5,031.6,34.5,0000.0,0006.43,0003.75,0003.47
